Location: Gipe Farm
(40.9466°N, 95.5370°W)
Time: 17:09:34
(UTC-06:00)

Daily predictions for brighter satellites

Satellite Brightness Start Highest point End
(mag) Time Altitude Azimuth Time Altitude Azimuth Time Altitude Azimuth
ATLAS 3B R/B 4.5 17:15:42 10° W 17:21:23 24° NW 17:26:54 10° NNE
SJ-12 3.9 17:20:42 10° SSE 17:24:50 83° ENE 17:29:00 10° N
Cosmos 2263 Rocket 4.2 17:21:01 10° WSW 17:25:27 23° NW 17:29:53 10° N
CZ-2C R/B 3.0 17:23:05 10° S 17:28:00 65° W 17:33:05 10° NNW
SMAP 3.3 17:23:45 10° SE 17:28:11 48° ENE 17:32:40 10° N
Ariane Rocket 3.0 17:26:45 10° SSE 17:31:46 61° ENE 17:36:47 10° N
IDEFIX/ARIANE 42P 4.1 17:29:53 10° S 17:34:49 42° W 17:39:47 10° NNW
Cosmos 1484 Rocket 2.9 17:31:20 10° SSE 17:35:05 54° ENE 17:38:54 10° N
CORIOLIS 4.3 17:30:58 10° SE 17:36:13 53° ENE 17:41:31 10° N
IRAS Rocket 4.4 17:31:40 10° SSE 17:37:14 84° WSW 17:42:48 10° NNW
Cosmos 1862 4.0 17:34:51 10° NNW 17:38:49 59° W 17:42:46 10° S
Meteor 1-28 Rocket 3.6 17:35:47 10° NNE 17:39:19 41° E 17:42:49 10° S
Cosmos 2208 Rocket 4.4 17:35:11 10° NNW 17:40:23 71° WSW 17:45:36 10° S
Cosmos 841 Rocket 4.2 17:36:52 10° N 17:41:36 32° ENE 17:46:17 10° SE
Cosmos 1606 4.2 17:40:03 10° SE 17:42:29 17° E 17:44:55 10° NE
USA 234 3.8 17:37:22 10° ENE 17:43:31 42° SE 17:49:36 10° SSW
AQUARIUS 4.1 17:40:42 10° SSE 17:45:10 70° ENE 17:49:39 10° N
EO 1 Del DPAF 4.5 17:42:42 10° NE 17:45:45 22° E 17:48:46 10° SSE
Cosmos 972 Rocket 3.8 17:42:14 10° NNW 17:47:11 75° ENE 17:52:05 10° SSE
Cosmos 2233 Rocket 4.1 17:42:28 10° S 17:48:36 59° E 17:54:41 10° NNE
Landsat 4 4.2 17:45:57 10° NNE 17:49:33 40° E 17:53:07 10° S
Cosmos 1908 Rocket 4.1 17:45:56 10° N 17:49:54 34° ENE 17:53:50 10° SE
SKYMED 2 4.5 17:46:11 10° NE 17:49:57 28° E 17:53:43 10° SSE
Cosmos 1782 4.1 17:47:12 10° SE 17:50:16 21° E 17:53:20 10° NE
Cosmos 2242 Rocket 3.8 17:46:25 10° S 17:50:58 79° W 17:55:32 10° N
Cosmos 1733 Rocket 3.1 17:48:48 10° N 17:53:15 89° W 17:57:42 10° S
BREEZE-M DEB (TANK) 2.8 17:53:28 10° SSW 17:55:22 29° SE 17:56:41 18° E
SPOT 3 Rocket 4.2 17:51:24 10° SE 17:55:58 32° ENE 18:00:33 10° N
Sich 1 Rocket 4.2 17:53:20 10° N 17:57:23 34° ENE 18:01:27 10° SE
Meteor 1-20 Rocket 4.5 17:52:18 10° N 17:57:37 44° ENE 18:02:49 10° SSE
Lacrosse 5 3.7 17:54:41 10° WNW 17:58:29 21° NNW 18:02:18 10° NNE
CZ-4C R/B 4.1 17:53:33 10° NNW 17:58:34 21° NNE 18:02:17 15° ENE
Cosmos 2082 Rocket 3.1 17:56:22 10° N 18:01:08 26° NE 18:05:49 10° ESE
Cosmos 1862 Rocket 3.7 17:58:16 10° SSW 18:02:40 77° W 18:07:09 10° N
CSL-04 Rocket 4.3 17:59:25 10° S 18:04:38 60° W 18:09:54 10° NNW
Cosmos 972 4.4 18:00:51 10° N 18:05:51 56° ENE 18:10:37 10° SSE
GENESIS II 4.1 18:05:15 10° NNW 18:09:12 86° NE 18:13:05 10° SSE
Cosmos 1340 4.4 18:06:43 10° SW 18:10:10 34° WNW 18:13:39 10° N
Cosmos 1437 4.1 18:14:01 10° SSW 18:17:01 39° WNW 18:20:02 10° N
METEOR-M 4.0 18:13:55 10° SSE 18:19:13 72° ENE 18:24:33 10° N
MONITOR-E 4.1 18:18:33 10° SSE 18:21:31 53° ENE 18:24:31 10° N
Cosmos 304 Rocket 3.8 18:19:11 10° NNW 18:24:01 83° WSW 18:28:47 10° SSE
ERBS 2.5 18:20:45 10° NW 18:24:08 73° SW 18:27:00 14° SE
ERS-2 2.0 18:20:35 10° SSE 18:24:15 86° ENE 18:27:57 10° NNW
Okean 1-7 3.2 18:21:32 10° SSE 18:25:43 46° E 18:29:04 15° NNE
CENTAUR R/B 3.6 18:21:42 10° WSW 18:27:29 41° NW 18:34:03 10° NNE
CZ-2C R/B 4.3 18:25:11 10° N 18:29:34 56° WNW 18:33:59 10° SSW
Thor Agena Rocket 4.5 18:30:42 26° ESE 18:30:42 26° ESE 18:34:40 10° SSE
Meteor 1-14 Rocket 4.4 18:25:09 10° NNW 18:30:50 74° W 18:36:22 10° S
Cosmos 1844 Rocket 4.5 18:28:50 10° WSW 18:33:40 28° NW 18:38:30 10° N
Cosmos 1782 Rocket 3.5 18:29:56 10° N 18:34:14 60° E 18:38:32 10° SSE
BREEZE-M DEB (TANK) 3.5 18:32:26 10° NW 18:34:21 23° NNE 18:34:21 23° NNE
COSMO-SKYMED 1 2.6 18:33:48 10° N 18:38:10 83° WNW 18:42:30 10° SSW
COSMOS 2455 3.8 18:33:09 10° SW 18:38:54 46° NW 18:44:43 10° NNE
YAOGAN 1 3.3 18:35:14 10° S 18:39:27 53° W 18:43:43 10° NNW
Cosmos 1072 Rocket 4.4 18:34:50 10° S 18:40:59 72° E 18:47:16 10° NNE
CZ-4 R/B 3.3 18:39:02 10° SSW 18:42:29 30° W 18:45:56 10° NW
Cosmos 44 4.1 18:42:58 10° NNW 18:46:29 32° NNE 18:46:29 32° NNE
Cosmos 2034 Rocket 4.1 18:41:12 10° SSE 18:47:21 54° E 18:53:31 10° NNE
Cosmos 2221 Rocket 3.4 18:43:38 10° S 18:48:02 77° E 18:50:41 24° NNE
Nadezhda 4 Rocket 4.3 18:42:25 10° N 18:48:07 39° ENE 18:50:08 31° ESE
Meteor 1-11 Rocket 4.0 18:44:52 10° N 18:50:30 45° ENE 18:53:03 28° SE
FENGYUN 3A 3.6 18:49:08 10° SSE 18:54:33 89° E 19:00:00 10° NNW
ALOS 2.2 18:50:35 10° SSE 18:55:15 83° WSW 18:59:58 10° NNW
SL-27 R/B 2.9 18:54:36 10° NNW 18:57:52 56° WSW 18:58:54 37° SSW
Cosmos 2297 3.6 18:52:39 10° SSW 18:58:20 75° ESE 19:00:47 36° NNE
Cosmos 1833 Rocket 2.5 18:56:01 10° NNW 19:01:40 77° ENE 19:05:02 25° SSE
Cosmos 1503 Rocket 4.0 18:59:29 10° SSW 19:04:47 84° WNW 19:07:13 33° NNE
Cosmos 2278 Rocket 3.3 19:00:09 10° SW 19:05:29 41° WNW 19:10:32 12° N
Cosmos 1633 3.7 19:02:09 10° NNW 19:05:40 44° W 19:09:09 10° SSW
Okean 2 Rocket 3.1 19:05:58 10° N 19:10:31 84° W 19:15:02 10° S
Cosmos 1464 Rocket 4.2 19:10:52 10° SSW 19:16:55 66° W 19:23:03 10° N
Meteor 2-20 4.3 19:13:00 10° N 19:19:07 86° E 19:25:11 10° S
Cosmos 540 Rocket 3.8 19:16:56 10° NNW 19:22:04 63° WSW 19:26:13 15° S
MOS 1-B Rocket 4.4 19:17:43 10° SSE 19:24:44 74° ENE 19:33:03 10° N
BREEZE-M R/B 3.8 19:22:27 10° WNW 19:24:58 47° WSW 19:24:58 47° WSW
USA 234 3.6 19:24:09 37° NNE 19:26:38 59° NW 19:33:00 10° WSW
Lacrosse 5 4.3 19:41:04 10° NNW 19:42:16 12° NNW 19:42:16 12° NNW
Cosmos 2082 Rocket 3.0 19:40:00 10° NW 19:45:25 47° WSW 19:47:57 29° SSW
CZ-4C R/B 2.9 19:41:13 10° NNW 19:47:31 63° NNE 19:47:31 63° NNE
